Location: Ambatomitokona
(18.7500°S, 47.6667°E)
Time: 12:24:02
(UTC+00:00)

Daily predictions for brighter satellites

Satellite Brightness Start Highest point End
(mag) Time Altitude Azimuth Time Altitude Azimuth Time Altitude Azimuth
IRS-1C Rocket 4.2 15:44:26 10° SSE 15:49:39 59° ENE 15:54:49 10° N
Cosmos-2242 3.3 15:46:45 10° NNE 15:50:58 49° E 15:55:14 10° SSE
Cosmos 2263 4.3 15:48:41 10° S 15:54:20 66° ESE 15:59:55 10° NNE
BREEZE-M DEB (TANK) 3.4 15:52:49 10° SSW 15:55:07 43° SE 15:59:29 10° NE
Centaur AC-119 1.8 15:59:15 10° WSW 16:01:16 38° SSE 16:03:12 10° E
Cosmos 1076 Rocket 3.6 15:57:36 10° S 16:01:58 62° E 16:06:16 10° NNE
Cosmos 2369 Rocket 2.6 15:56:47 10° SSW 16:02:29 68° WNW 16:08:07 10° N
Cosmos 1833 Rocket 4.1 15:59:48 10° NE 16:03:14 17° E 16:06:41 10° ESE
CSL-04 Rocket 4.5 15:58:49 10° SE 16:03:22 28° E 16:07:56 10° NNE
ATLAS 2AS CENTAUR RB 3.9 16:00:19 10° NW 16:05:07 42° NNE 16:30:50 10° E
CZ-4 R/B 1.4 16:01:18 10° SSE 16:05:32 81° ENE 16:09:40 10° N
Lacrosse 5 2.5 16:02:01 10° N 16:06:27 31° ENE 16:10:55 10° ESE
USA 290 4.1 16:04:56 10° NE 16:06:34 13° E 16:08:14 10° ESE
Delta 168 3.8 16:08:03 10° NNW 16:10:20 19° NNE 16:11:54 14° ENE
Cosmos 2221 4.3 16:09:30 12° ENE 16:10:52 13° E 16:12:59 10° ESE
Okean-O 2.6 16:06:48 10° SSE 16:11:16 75° ENE 16:15:40 10° N
Meteor 2-15 Rocket 4.4 16:08:33 10° N 16:14:37 71° E 16:20:45 10° S
Cosmos 2058 4.3 16:11:13 10° SSW 16:15:13 41° W 16:19:11 10° NNW
CZ-2C R/B 4.0 16:10:51 10° S 16:15:38 51° WSW 16:20:37 10° NNW
Cosmos 2112 Rocket 4.1 16:11:22 10° NNW 16:16:32 80° WSW 16:21:46 10° S
Cosmos 1553 Rocket 3.9 16:10:59 10° N 16:17:11 80° E 16:23:21 10° S
Cosmos 389 Rocket 3.7 16:16:00 14° NE 16:17:51 21° E 16:20:30 10° SE
Cosmos 1656 Rocket 3.7 16:14:23 10° SSW 16:20:07 88° WNW 16:25:47 10° NNE
COSMOS 2406 3.8 16:17:04 10° NNE 16:22:05 32° ENE 16:27:06 10° SE
Meteor 1-27 4.1 16:20:18 10° N 16:25:50 75° E 16:31:30 10° S
ARGOS 3.1 16:23:24 10° SSE 16:28:46 67° ENE 16:34:04 10° N
GPS 2-18 Rocket1 3.6 16:35:53 10° W 16:39:33 47° NNW 16:40:57 31° NE
Centaur AC-102 4.3 16:30:09 10° W 16:41:50 50° NNW 16:44:34 24° NE
DELTA 2 R/B (1) 3.6 16:37:19 10° NW 16:42:52 82° SW 16:48:28 10° SE
S3M 4.0 16:37:18 10° N 16:43:31 89° W 16:49:52 10° S
GEOS 3 Rocket 4.4 16:40:43 10° N 16:45:37 47° WNW 16:50:28 10° SW
Cosmos 1633 2.5 16:42:25 10° S 16:46:02 65° E 16:47:22 35° NNE
CZ-2C R/B 1.1 16:47:50 10° WSW 16:51:23 66° NNW 16:52:13 48° NNE
Cosmos 2151 3.6 16:49:48 10° SSW 16:54:03 57° W 16:58:07 11° N
FUSE 3.8 16:50:17 10° WNW 16:55:38 77° NNE 16:58:08 32° E
Cosmos 1766 Rocket 3.6 16:52:05 10° S 16:56:23 54° E 16:57:12 46° NE
USA 186 1.6 16:54:35 10° SSE 16:57:38 75° ESE 16:57:38 75° ESE
OAO 3 Copernicus 4.5 16:57:18 10° SW 17:02:20 62° SSE 17:03:44 44° E
Yuri Rocket 2.9 16:59:03 10° WSW 17:03:22 74° SSE 17:04:03 58° E
SL-08 RB Rocket 4.2 16:59:51 10° S 17:04:26 60° WSW 17:08:56 10° NNW
Meteor 2-2 Rocket 4.3 17:00:54 10° N 17:06:55 80° E 17:12:55 10° S
H-2A R/B 4.2 17:04:15 10° SSW 17:08:15 25° WSW 17:12:14 10° NW
Cosmos 1842 Rocket 3.5 17:08:57 33° N 17:10:52 82° W 17:15:14 10° S
Okean 3 Rocket 3.6 17:09:20 10° S 17:13:55 80° W 17:15:07 49° N
Meteor 2-3 Rocket 4.1 17:10:05 10° SSW 17:15:52 66° W 17:19:35 22° N
Intelsat 5-3 Rocket 3.9 17:04:38 10° W 17:17:30 64° S 17:19:42 38° ESE
Cosmos 1745 Rocket 4.0 17:12:51 10° S 17:19:15 86° W 17:22:27 32° N
Aurora 2 Rocket 4.2 17:12:40 10° W 17:20:16 41° NNW 17:21:53 35° N
Cosmos 1048 Rocket 4.2 17:26:38 57° SE 17:26:38 57° SE 17:31:05 10° SSE
Palapa 6 Rocket 3.2 17:22:21 10° WNW 17:27:48 83° NW 17:27:48 83° NW
GPS 2-15 Rocket1 3.2 17:23:40 10° W 17:28:04 74° SW 17:28:04 74° SW
Atlas Centaur 2 3.6 17:28:21 10° WNW 17:29:28 14° NW 17:29:28 14° NW
Cosmos 332 Rocket 4.4 17:29:51 10° S 17:33:26 46° SSE 17:33:26 46° SSE
Cosmos 405 Rocket 3.9 17:32:14 10° SSW 17:35:59 41° W 17:35:59 41° W
Cosmos 1709 Rocket 3.8 17:30:05 10° S 17:36:22 69° E 17:36:24 69° E
Centaur D-1A AC-31 1.5 17:33:34 10° WSW 17:36:01 60° WSW 17:36:01 60° WSW
SJ-6B 4.1 17:33:04 10° S 17:35:40 36° SSW 17:35:40 36° SSW
NOSS 3-1 (C) 4.4 17:27:59 10° NNW 17:37:04 76° WSW 17:45:40 10° SSE
OBJECT-B 3.7 17:37:50 10° S 17:38:22 14° S 17:38:22 14° S
SEDSat Delta rocket 4.2 17:41:02 10° WSW 17:43:37 38° SW 17:43:37 38° SW
Cosmos 1833 Rocket 4.0 17:41:33 10° NW 17:46:44 38° WSW 17:51:58 10° S
IRS-1A Rocket 4.4 17:41:54 10° S 17:47:43 75° WSW 17:48:40 62° NW
Lacrosse 5 4.2 17:45:24 10° WNW 17:49:20 22° SW 17:53:18 10° S
Ariane Rocket 3.4 17:44:39 10° S 17:49:22 62° SW 17:49:22 62° SW
CZ-3B R/B 3.1 17:52:31 10° WSW 17:55:22 47° SSW 17:55:22 47° SSW
USA 229 DEB 4.0 17:49:27 10° NNW 17:57:15 75° WSW 18:04:53 10° SSE
USA 229 4.0 17:49:33 10° NNW 17:57:22 76° WSW 18:05:01 10° SSE
Cosmos 2082 Rocket 3.0 18:07:26 49° SW 18:07:26 49° SW 18:12:08 10° S
NOSS 3-1 (A) 4.4 18:05:11 10° NNW 18:14:13 70° WSW 18:22:45 10° SSE
ATLAS CENTAUR R/B 4.5 18:16:04 10° SW 18:23:51 81° WNW 18:27:03 61° NNE
H-2A R/B (2) 4.2 19:03:10 10° WSW 19:08:51 56° S 20:04:27 10° E
H-2A R/B (2) 4.2 19:03:11 10° WSW 19:08:51 56° S 20:04:27 10° E
SL-16 R/B 4.1 23:18:37 10° SSE 23:22:14 25° SE 23:22:14 25° SE
ATLAS 5 CENTAUR R/B 4.3 23:41:38 25° SSW 23:41:38 25° SSW 23:45:20 10° S
Hubble Space Telescope 3.9 23:43:33 12° SE 23:43:33 12° SE 23:44:05 10° SE
